Tracking 20093 objects as of 14-Dec-2019
HD Live streaming from Space Station
objects crossing your sky now

FENGYUN 1C DEB

Track FENGYUN 1C DEB now!
10-day predictions


NORAD ID: 29807
Int'l Code: 1999-025CZ
Perigee: 818.3 km
Apogee: 936.9 km
Inclination: 98.9 °
Period: 102.4 minutes
Semi major axis: 7248 km
RCS: 0.0767 m2 (small)
Launch date: May 10, 1999
Source: People's Republic of China (PRC)
Launch site: Taiyaun Space Center, China (TSC)

Note: This is SATELLITE DEBRIS
aabbcc
Your satellite tracking list
Your tracking list is empty




NASA's NSSDC Master Catalog

Two Line Element Set (TLE):
1 29807U 99025CZ  19347.81979431 -.00000007 +00000-0 +21529-4 0  9998
2 29807 098.9013 015.2730 0081831 016.2872 344.0898 14.06758337662771
Source of the keplerian elements: AFSPC